Buffalo, SD

6:20 AM MDT on May 25, 2017 (GMT -0600)
Buffalo

Weather History for K2WX - October, 2013

Change the Weather History Date:

Sunday, October 6, 2013

  Actual Average Record
Temperature  
Mean Temperature 48 °F 49 °F  
Max Temperature 65 °F 62 °F 82 °F (2004)
Min Temperature 30 °F 36 °F 17 °F (2012)
Degree Days  
Heating Degree Days 17 16  
Month to date heating degree days 117 91  
Since 1 July heating degree days 246 382  
Cooling Degree Days 0 0  
Month to date cooling degree days 0 0  
Year to date cooling degree days 587 512  
Moisture  
Dew Point 36 °F    
Average Humidity 63    
Maximum Humidity 85    
Minimum Humidity 40    
Precipitation  
Precipitation 0.00 in 0.01 in 0.34 in (2011)
Month to date precipitation 0.50 0.04  
Year to date precipitation 12.15 13.26  
Sea Level Pressure  
Sea Level Pressure 30.05 in    
Wind  
Wind Speed 10 mph (West)    
Max Wind Speed 23 mph    
Max Gust Speed 28 mph    
T = Trace of Precipitation, MM = Missing Value Source: NWS Daily Summary

Daily Weather History Graph

Daily Weather History Graph

Search for Another Location

Airport or City:

Trip Planner

Search our weather history database for the weather conditions in past years. The results will help you decide how hot, cold, wet, or windy it might be!

Date:

Astronomy

Oct. 06, 2013 Rise Set
Actual Time 6:59 AM MDT 6:24 PM MDT
Civil Twilight 6:29 AM MDT 6:53 PM MDT
Nautical Twilight 5:55 AM MDT 7:28 PM MDT
Astronomical Twilight 5:20 AM MDT 8:02 PM MDT
Moon 8:52 AM MDT (10/6) 7:17 PM MDT (10/6)
Length of Visible Light 12h 24m
Length of Day
11h 25m
Waxing Crescent, 4% of the Moon is Illuminated
Oct 6
Waxing Crescent
Oct 11
First Quarter
Oct 18
Full
Oct 26
Last Quarter
Nov 3
New

Hourly Weather History & Observations

Time (MDT) Temp. Windchill Dew Point Humidity Pressure Visibility Wind Dir Wind Speed Gust Speed Precip Events Conditions
12:56 AM 33.1 °F 28.7 °F 27.0 °F 78% 30.09 in - West 4.6 mph - N/A   Unknown
1:56 AM 30.9 °F 26.2 °F 27.0 °F 85% 30.09 in - West 4.6 mph - N/A   Unknown
2:56 AM 32.0 °F - 28.0 °F 85% 30.09 in - Calm Calm - N/A   Unknown
3:56 AM 34.0 °F 27.2 °F 28.9 °F 82% 30.07 in - West 8.1 mph - N/A   Unknown
4:56 AM 35.1 °F 26.9 °F 30.0 °F 82% 30.06 in - WNW 11.5 mph - N/A   Unknown
5:56 AM 36.0 °F 26.7 °F 30.9 °F 82% 30.06 in - WNW 15.0 mph - N/A   Unknown
6:56 AM 32.0 °F 24.8 °F 28.9 °F 88% 30.08 in - SW 8.1 mph - N/A   Unknown
7:56 AM 36.0 °F 29.0 °F 30.9 °F 82% 30.09 in - SW 9.2 mph - N/A   Unknown
8:56 AM 39.9 °F 33.4 °F 33.1 °F 77% 30.09 in - WSW 10.4 mph - N/A   Unknown
9:56 AM 43.0 °F 37.7 °F 35.1 °F 74% 30.10 in - West 9.2 mph - N/A   Unknown
10:56 AM 46.9 °F - 37.9 °F 71% 30.10 in - WSW 6.9 mph - N/A   Unknown
11:56 AM 51.1 °F - 39.9 °F 66% 30.09 in - West 10.4 mph - N/A   Unknown
12:56 PM 55.9 °F - 42.1 °F 60% 30.06 in - West 10.4 mph - N/A   Unknown
1:56 PM 61.0 °F - 42.1 °F 50% 30.04 in - WNW 13.8 mph - N/A   Unknown
2:56 PM 63.0 °F - 41.0 °F 45% 30.01 in - WNW 19.6 mph 24.2 mph N/A   Unknown
3:56 PM 64.9 °F - 39.0 °F 39% 30.00 in - WNW 16.1 mph - N/A   Unknown
4:56 PM 64.0 °F - 39.9 °F 41% 30.00 in - West 13.8 mph - N/A   Unknown
5:56 PM 61.0 °F - 39.9 °F 46% 30.00 in - WNW 6.9 mph - N/A   Unknown
6:56 PM 57.0 °F - 41.0 °F 55% 30.02 in - West 5.8 mph - N/A   Unknown
7:56 PM 46.9 °F - 39.9 °F 77% 30.04 in - West 8.1 mph - N/A   Unknown
8:56 PM 48.0 °F - 39.9 °F 74% 30.02 in - WNW 10.4 mph - N/A   Unknown
9:56 PM 46.0 °F 41.0 °F 39.0 °F 76% 30.01 in - West 10.4 mph - N/A   Unknown
10:56 PM 44.1 °F 39.5 °F 37.9 °F 79% 29.99 in - West 8.1 mph - N/A   Unknown
11:56 PM 42.1 °F 40.2 °F 37.0 °F 82% 29.98 in - SSW 3.5 mph - N/A   Unknown